Tracking 35030 objects as of 11-Aug-2026
HD Live streaming from Space Station
objects crossing your sky now

ORBICRAFT-ZORKIY


ORBICRAFT-ZORKIY is no longer on orbit
ORBICRAFT-ZORKIY is classified as:


NORAD ID: 47960
Int'l Code: 2021-022AE
Launch date: March 22, 2021
Source: (TBD)
Launch site: TYURATAM MISSILE AND SPACE COMPLEX (TTMTR)
Decay date: 2025-04-19

Uplink (MHz):
Downlink (MHz): 437.850*/437.950/10465.000
Beacon (MHz):
Mode: 2k4/4k8*/9k6GMSK_USP SSTV
Call sign: RS15S
Status: Reentered

Your satellite tracking list
Your tracking list is empty




NASA's NSSDC Master Catalog

Two Line Element Set (TLE):
1 47960U 21022AE  25102.18991407  .08920267  26050-5  10403-2 0  9994
2 47960  97.4008  17.2508 0008002 203.8387 156.2541 16.36719701224430
Source of the keplerian elements: AFSPC